Wind_Speed
5 11 13 12 17 18 26 31 30 28 24 19 19 20 18 18 18 18 18 17 14 13 12 11 11 11 12 11 7 6 5 4 3 3 2 3 3 9 10 10 10 13 21
5 7 13 12 12 12 22 28 28 27 26 22 18 17 16 18 18 17 16 16 12 13 12 11 11 12 12 11 10 8 5 2 1 0 1 1 1 3 7 10 9 11 16
9 9 11 15 13 16 23 27 25 24 23 20 17 15 16 15 14 15 11 10 13 10 12 13 10 12 12 12 10 9 6 4 2 2 2 1 2 1 3 10 14 12 16
5 8 9 14 16 19 18 18 17 19 19 20 17 17 17 15 15 13 5 10 11 12 12 13 11 13 12 11 9 9 8 7 6 4 5 3 1 1 1 4 8 11 15
7 8 10 17 18 17 16 18 18 14 19 18 17 17 17 17 15 11 6 8 14 13 11 11 12 13 15 13 11 9 8 8 8 7 3 3 1 2 1 2 2 8 12
6 6 11 17 18 18 13 13 14 18 15 15 16 17 17 16 15 14 12 9 8 9 12 13 13 13 14 15 14 12 11 9 12 10 8 5 1 0 2 1 2 3 5
6 7 8 13 17 19 18 16 17 17 15 15 14 15 16 15 16 15 13 10 9 11 12 13 15 16 16 14 13 14 14 13 12 11 10 7 7 5 3 3 0 1 3
7 8 10 15 20 20 19 18 18 17 16 15 17 15 15 15 13 12 14 13 12 10 8 10 11 12 14 14 14 15 14 12 13 13 9 8 8 9 8 4 4 1 2
9 10 10 16 18 18 19 21 19 16 16 16 15 15 13 12 14 12 14 11 7 6 7 8 10 10 11 12 12 13 15 14 14 14 13 11 11 10 9 10 8 4 1
10 8 9 17 20 21 19 18 18 16 15 15 14 12 7 7 6 4 9 5 3 3 1 6 8 7 8 9 11 12 11 12 13 14 13 13 12 9 9 10 12 11 8
11 10 10 18 23 22 21 20 18 16 14 13 11 9 5 4 3 2 2 3 2 4 4 1 5 7 7 7 10 11 11 12 11 13 14 14 14 13 13 11 11 13 16
13 9 9 15 19 21 19 20 18 15 13 11 10 8 5 7 6 6 6 5 4 3 2 3 2 3 6 7 10 11 12 14 14 13 14 14 14 15 15 14 15 15 15
7 7 6 9 17 22 21 21 18 15 11 10 12 12 10 10 11 10 9 9 8 9 9 7 5 4 2 0 4 6 8 11 13 13 13 14 12 14 13 13 15 16 16
9 9 7 8 12 13 17 18 17 18 14 16 18 18 16 13 11 10 7 5 5 4 4 4 4 5 6 6 6 5 2 4 6 8 9 10 11 11 11 12 13 14 14
7 9 8 7 10 9 7 8 16 20 23 23 23 21 19 15 11 8 6 4 2 3 2 1 1 2 1 3 2 3 4 4 4 3 2 2 2 3 5 7 8 8 9
9 9 7 11 15 17 17 13 8 10 15 18 24 22 18 13 9 7 6 5 5 4 4 5 6 6 5 4 4 4 4 4 5 7 8 8 8 8 8 9 10 11 12
8 9 11 17 24 28 22 21 13 8 12 17 13 13 15 12 10 8 6 4 3 3 3 3 3 3 3 4 5 6 6 6 7 8 10 10 10 11 12 12 11 12 13
6 10 13 23 30 35 39 22 8 3 8 12 13 11 12 11 7 5 4 3 2 2 2 2 1 2 4 4 3 4 4 4 5 6 8 9 10 10 11 11 11 11 10
10 14 17 23 25 23 29 27 18 13 11 10 12 10 7 6 3 4 4 3 3 3 3 3 6 8 9 7 6 5 6 6 6 6 6 6 5 6 10 11 13 16 15
17 21 22 22 26 26 28 19 23 21 15 15 14 11 7 4 4 6 5 3 3 4 7 10 10 8 8 6 6 6 7 8 8 7 8 9 11 12 13 16 16 18 21
18 22 23 22 25 28 28 28 24 26 24 16 11 8 5 5 5 5 5 7 9 9 10 12 9 7 7 8 9 11 10 9 10 10 11 13 14 16 18 17 18 19 19
12 16 18 16 19 21 24 19 22 26 23 17 12 8 7 6 6 6 6 5 6 6 8 8 7 7 7 10 11 10 8 7 6 7 8 8 9 8 7 7 7 7 9
15 17 17 17 20 25 25 24 25 26 21 16 12 10 8 7 6 5 7 6 3 7 8 6 5 6 8 11 10 10 9 8 7 7 7 8 8 6 5 6 5 5 8
16 20 19 14 13 21 24 26 26 23 19 14 11 10 9 9 7 6 5 6 6 8 8 6 6 7 8 10 10 12 9 7 6 4 5 7 8 10 10 10 12 12 13
18 22 19 18 19 25 27 27 22 18 14 12 11 12 12 11 9 7 7 8 6 5 6 6 5 6 8 8 7 9 12 9 7 5 8 11 12 12 13 14 14 13 15
13 18 19 21 25 28 26 23 19 18 17 16 15 15 14 13 12 12 10 9 6 6 6 5 4 5 6 9 6 6 7 7 6 9 9 10 10 11 12 12 13 13 15
Wind_Direction
183 199 195 198 203 198 191 186 198 217 222 220 224 233 242 245 252 258 259 260 268 246 231 232 226 227 232 228 243 282 288 294 279 252 147 142 173 197 201 213 211 216 216
193 203 188 184 196 198 193 192 206 216 218 220 231 236 242 251 259 263 265 264 265 250 239 227 229 228 229 229 240 259 289 305 14 157 67 17 172 181 204 203 208 226 219
206 201 187 189 196 189 194 205 217 218 219 220 231 232 240 257 263 273 269 288 258 253 243 226 229 224 224 231 243 249 265 286 277 259 202 144 226 314 192 213 226 233 218
197 214 176 188 205 204 203 215 221 226 226 220 227 232 238 246 269 283 246 251 238 248 234 226 232 224 227 231 239 245 257 274 266 283 251 245 197 150 357 230 234 231 235
189 204 193 196 205 199 205 223 235 237 222 227 234 239 243 251 268 274 285 212 229 231 219 229 229 231 230 235 233 237 247 253 269 257 247 232 219 167 136 305 311 242 250
193 207 204 197 205 208 222 224 224 232 225 228 236 232 236 255 261 272 269 264 248 231 232 235 232 235 233 235 238 240 240 256 267 282 242 244 282 274 213 220 285 270 280
187 189 186 193 195 203 215 216 223 222 225 229 225 231 241 250 255 265 272 269 256 241 233 232 231 232 232 235 238 236 241 250 255 271 277 260 248 241 223 220 247 282 290
187 197 195 195 198 207 212 209 209 222 224 228 230 237 244 248 261 280 283 273 271 262 247 227 229 237 239 240 239 236 236 239 245 251 264 248 269 256 231 206 168 15 292
192 201 192 205 199 199 202 205 213 225 224 225 227 235 239 251 270 277 295 294 300 266 248 226 221 224 229 231 230 234 238 239 243 249 247 254 266 259 247 245 238 183 239
183 198 184 198 202 202 201 201 206 210 210 214 221 235 252 256 272 306 291 293 332 339 322 219 206 211 220 220 225 233 240 245 246 245 242 247 254 253 257 255 246 235 221
194 193 195 201 201 198 195 196 203 201 200 205 215 228 244 224 194 151 126 94 44 16 18 11 202 216 215 217 227 236 240 244 249 244 248 251 255 260 258 257 247 245 231
198 188 187 193 203 205 195 193 201 198 198 199 210 202 194 159 152 128 111 103 98 81 63 47 359 298 236 232 240 248 252 249 246 248 248 253 257 261 264 263 254 252 250
161 146 154 183 204 204 197 191 190 196 184 175 165 162 152 137 127 116 110 106 102 90 86 87 79 67 40 296 267 268 267 263 253 253 255 260 260 261 263 262 263 264 263
173 166 165 183 199 200 196 189 185 185 178 162 149 141 138 132 128 124 120 107 97 92 84 84 82 85 80 78 64 54 5 291 279 276 262 261 260 265 267 268 268 271 269
180 182 177 161 150 126 132 189 180 177 163 155 144 140 136 136 134 128 119 110 94 81 90 89 51 84 57 42 4 352 353 356 359 7 341 315 308 302 297 290 290 286 283
191 192 158 101 95 99 102 105 115 143 148 149 144 138 134 134 124 114 110 109 104 93 81 77 82 90 65 35 16 357 348 331 313 305 300 299 298 296 287 278 276 275 273
168 153 139 133 121 107 95 46 68 128 140 135 134 133 131 131 128 128 122 101 86 76 71 67 59 44 32 16 357 350 344 333 328 320 312 303 299 296 294 292 288 277 272
151 152 144 133 134 128 113 110 68 156 168 155 142 138 133 127 129 128 107 94 53 21 19 39 88 97 78 62 44 16 2 354 350 336 329 319 300 298 299 304 301 292 281
158 157 151 143 144 132 134 167 192 244 217 181 153 149 140 122 128 96 98 93 70 63 68 90 112 105 87 62 42 22 12 1 356 344 341 345 340 323 321 317 314 306 297
152 153 151 146 142 150 156 143 202 226 206 194 169 156 149 144 139 128 125 106 85 101 98 111 115 98 78 47 7 354 344 325 315 314 318 308 299 296 296 303 304 299 297
159 157 155 160 158 160 156 174 196 202 212 190 164 152 153 145 139 140 127 120 111 112 108 112 102 77 43 20 351 338 333 320 309 306 309 310 303 298 295 289 286 287 295
135 156 157 165 170 174 179 183 180 184 184 173 164 156 158 153 147 154 150 149 150 126 123 126 102 58 20 356 350 356 9 8 6 350 358 3 352 350 352 352 332 312 307
129 141 150 151 165 176 175 158 177 171 167 164 161 165 161 155 166 174 168 152 133 136 130 117 83 42 12 5 11 28 37 32 34 30 16 350 338 327 357 7 338 343 348
145 150 150 151 155 176 173 173 168 166 170 166 163 161 163 167 174 175 180 159 140 131 118 93 72 39 16 12 25 25 32 41 41 46 43 24 30 36 25 26 26 24 18
152 153 151 152 159 168 177 169 174 178 171 168 172 176 181 187 188 189 185 180 168 147 128 115 71 42 24 15 28 24 20 26 36 54 46 43 37 32 27 27 21 19 20
156 150 151 154 160 168 167 169 177 179 178 174 179 188 197 197 199 196 178 169 162 154 149 123 70 55 46 38 28 59 47 53 55 55 54 52 42 42 29 28 23 21 14
Height
780 782 783 785 788 791 794 798 802 805 810 812 814 817 819 822 823 824 825 826 826 827 828 830 832 833 835 837 838 839 839 839 838 837 837 838 838 839 840 842 844 846 847
778 779 781 784 787 789 791 796 799 803 806 809 812 815 818 819 820 821 822 823 824 826 826 828 830 831 833 835 836 838 838 838 837 837 837 838 839 838 838 840 841 843 846
778 778 779 780 784 788 791 795 798 801 804 808 812 814 816 817 817 818 820 821 823 823 824 826 827 828 830 832 834 836 838 838 837 837 837 839 839 838 838 838 839 841 843
775 776 776 778 781 787 791 794 796 800 803 807 810 813 815 815 816 818 819 820 821 821 823 824 825 827 829 830 832 835 836 837 837 836 836 836 836 837 838 837 837 838 840
773 776 775 776 780 785 789 792 795 798 801 805 808 811 812 814 815 816 816 817 818 820 821 822 823 825 827 828 830 833 834 836 835 835 835 835 835 835 836 837 836 836 837
771 774 776 777 779 784 788 791 793 796 799 802 805 807 811 813 814 814 815 815 815 816 817 818 820 822 824 826 828 830 831 833 834 833 834 834 835 834 835 837 836 836 836
768 772 774 777 779 782 785 787 790 794 797 800 803 806 809 811 812 812 812 813 813 812 814 815 817 818 821 823 825 827 828 830 832 833 832 833 834 835 835 836 836 836 835
766 769 770 773 775 778 781 785 788 791 794 797 801 805 808 808 810 810 810 809 809 809 811 812 814 816 818 820 822 824 825 827 829 830 831 832 832 833 834 834 835 837 836
761 764 766 769 771 774 777 781 786 789 792 796 800 803 805 807 807 806 807 807 806 807 807 809 812 813 815 817 819 821 823 824 826 828 829 829 830 831 831 832 833 834 837
755 759 761 764 767 771 775 780 784 787 790 794 798 801 802 804 804 804 805 805 805 805 806 806 809 811 813 815 816 818 820 821 823 825 826 826 827 828 828 829 829 831 832
752 753 756 760 763 768 773 777 781 784 788 792 794 798 799 802 803 805 805 806 806 805 806 807 809 810 812 813 814 815 817 819 820 822 823 824 824 824 825 825 826 826 828
748 750 754 757 760 764 769 773 779 782 785 788 792 796 800 802 804 806 806 806 806 806 806 807 809 810 810 812 813 814 815 816 817 818 820 820 821 821 822 822 822 822 823
748 751 755 758 761 763 768 773 776 781 784 786 790 795 799 802 804 807 808 808 808 807 808 808 809 809 810 811 812 812 812 814 813 815 815 816 817 817 817 818 818 818 819
745 747 753 756 760 763 767 771 775 778 781 784 788 793 797 801 805 807 809 810 809 808 808 809 809 809 810 811 811 811 811 811 811 811 811 812 812 813 813 814 814 813 813
745 746 749 754 761 765 771 776 777 778 780 785 786 790 794 799 803 806 808 809 809 809 809 809 809 809 810 810 810 811 811 811 811 811 811 810 810 811 811 811 810 810 809
741 742 746 756 765 770 774 780 785 788 789 792 785 788 793 798 801 805 808 809 810 810 809 808 809 809 810 810 810 809 808 808 808 809 809 809 809 808 808 808 808 807 806
737 742 746 752 759 764 773 788 790 796 794 793 798 797 794 798 800 803 807 809 810 810 810 809 809 809 809 809 809 808 808 807 807 807 806 806 806 805 805 805 804 804 803
742 742 746 754 758 757 753 773 789 804 804 801 795 799 798 800 802 805 805 808 810 810 810 808 808 809 808 808 808 807 806 805 804 804 804 803 802 802 801 801 800 800 799
736 741 747 751 756 759 749 762 781 798 801 800 794 798 800 800 804 804 806 808 809 809 809 808 807 808 810 810 809 808 808 807 805 804 803 802 801 800 799 798 797 796 795
737 740 744 749 753 759 760 767 776 786 793 798 795 795 799 801 803 803 806 808 808 810 809 809 810 809 808 810 809 808 806 806 805 804 803 803 800 798 796 796 794 791 790
738 742 746 748 752 757 757 766 774 780 790 794 792 793 798 800 802 804 806 809 809 809 811 808 809 810 809 807 806 806 805 803 803 801 799 800 798 795 793 790 789 788 786
743 747 748 753 753 758 763 769 775 778 787 789 791 794 798 799 801 805 808 808 809 808 810 811 809 808 810 807 805 803 802 799 797 800 798 795 795 793 790 788 786 784 782
743 748 751 755 759 763 767 768 775 778 782 786 790 794 796 798 802 805 807 808 808 806 809 810 808 806 808 807 804 802 800 799 797 797 796 795 792 792 789 787 785 783 781
744 748 752 758 762 764 768 770 777 777 781 781 785 789 793 798 802 804 807 808 809 810 809 808 807 807 807 804 803 802 800 799 797 796 794 794 792 790 791 787 785 783 782
740 744 750 753 757 762 764 767 773 774 776 780 784 789 795 799 803 805 807 809 810 808 808 809 808 808 809 806 804 803 804 802 798 794 796 792 791 792 791 789 787 784 781
738 739 745 753 756 762 764 766 769 772 776 780 785 791 795 798 803 806 807 808 809 807 807 807 808 810 809 807 805 804 801 802 801 797 798 795 794 793 795 792 788 786 783